Погода Полярный

Погода Полярный : погода сейчас, прогноз погоды и архив. Всё, что Вы хотите узнать о погоде Полярный!

Хотите узнать прогноз погоды Полярный? Тогда Вам сюда: Погода Полярный

Поиск расширенной информации на нашем сайте:

Полезная информация: Изготовление Салфеток с логотипом

Другие новости

Новости СМИ2

Главная страница сайта

Новости сайта

03.07.2017

Напоминаем, что на нашем специализированном сайте Метеоцентр.Азия вы можете получить высокодетализированные автоматические прогнозы погоды по пунктам России, СНГ и мира в авиационном формате (включающие направление и скорость ветра, видимость, явления погоды, количество и форму облачности, нижнюю и верхнюю границу облачности).

Рекомендуем: Надежно - новости балаково - у нас дешевле.

Погода Полярный - сегодня

Время (UTC), дата Ветер
(°,м/с) 
Видим.   Явления Облачность Т
(°С)
Тd
(°С)
f(%) Тe
(°С)
Pmin
(гПа)
dP
(гПа)
Po
(мм)
O2
(г/м3)
Тmin Tmax R s Состояние
почвы
06 21.11.17 290 (З) 4000 м  слаб. снег  10/6 480 м средняя 
[Frnb|As op]
-23.3 -24.5 90 -28  1018.8  1.7  714  316           
09 21.11.17 290 (З) 20000 м  {снег}  8/5 300 м средняя 
[Sc|Ac trans]
-23.8 -25 90 -30  1020.3  1.3  715  317           
12 21.11.17 300 (СЗ) 20000 м  {снег}  10/5 300 м средняя 
[Sc|Ac und]
-23.2 -25 85 -29  1021.4  1.1  716  317    -23  0.2     
15 21.11.17 300 (СЗ) 4000 м  слаб. снег  10/5 300 м средняя 
[Sc|As op]
-22.6 -23.8 90 -27  1022.4  1.1  716  316           
18 21.11.17 290 (З) 4000 м  слаб. снег  10/6 540 м средняя 
[Frnb|As op]
-21.4 -22.6 90 -24  1023.2  717  315           
21 21.11.17 310 (СЗ) 4000 м  слаб. снег  10/6 500 м средняя 
[Frnb|As op]
-20.7 -21.9 90 -24  1023.5  0.5  718  314           
00 22.11.17 310 (СЗ) 20000 м  {снег}  10/6 480 м средняя 
[Sc|Ac und]
-19.9 -21.1 90 -23  1024.6  1.3  719  314  -23.2    0.3  40  равномерный
сухой снег
100% 
03 22.11.17 330 (СЗ) 4000 м  слаб. снег  10/6 400 м средняя 
[Frnb|As op]
-18.4 -19.6 90 -21  1024.9  0.7  719  312           
06 22.11.17 310 (СЗ) 20000 м  {снег}  8/5 360 м средняя 
[St|Ac trans]
-20.3 -20.9 95 -23  1027  1.4  720  315           
09 22.11.17 310 (СЗ) 20000 м    8/5 450 м средняя 
[St|Ac trans]
-22 -22.6 95 -25  1029.3  1.7  721  318           
12 22.11.17 350 (С) 20000 м  слаб. снег  10/4 300 м средняя 
[Frnb|As op]
-25.3 -26 94 -30  1031.7  1.4  722  323    -18.3  0.4     
15 22.11.17 330 (СЗ) 20000 м  {снег}  10/0 средняя, верхняя 
[Ac trans|Ci fib]
-28.9 -29.6 94 -33  1034.4  1.4  724  328           
18 22.11.17 320 (СЗ) 20000 м  {снег}  10/0 средняя, верхняя 
[Ac trans|Ci fib]
-30.9 -31.4 95 -35  1036.2  1.2  724  331           
21 22.11.17 300 (СЗ) 20000 м    10/0 средняя, верхняя 
[Ac trans|Ci fib]
-32.5 -33.1 94 -36  1037.2  0.5  725  333           
00 23.11.17 290 (З) 20000 м    10/0 средняя, верхняя 
[Ac trans|Ci fib]
-33.3 -33.9 94 -37  1037.8  0.5  725  335  -33.2    0.0  40  равномерный
сухой снег
100% 
03 23.11.17 320 (СЗ) 20000 м    10/6 600 м средняя 
[Sc|Ac und]
-32.3 -32.8 95 -36  1038.2  0.6  726  333           
06 23.11.17 300 (СЗ) 20000 м    8/5 600 м средняя 
[Sc|Ac trans]
-31.7 -32.3 94 -36  1038.6  0.5  726  333           
09 23.11.17 310 (СЗ) 20000 м    8/5 600 м средняя 
[Sc|Ac trans]
-33 -33.6 94 -37  1039.8  0.7  727  335           
12 23.11.17 310 (СЗ) 20000 м    8/5 600 м средняя 
[Sc|Ac trans]
-32.7 -33.4 93 -39  1039.4  -0.2  726  334    -31.4       
15 23.11.17 300 (СЗ) 20000 м  слаб. снег  10/6 800 м средняя 
[Sc|As op]
-33.5 -34.2 93 -40  1039.7  726  336           
18 23.11.17 300 (СЗ) 20000 м  {снег}  8/4 600 м средняя 
[Sc|Ac trans]
-34.3 -34.8 95 -40  1039.6  -0.4  726  337           
21 23.11.17 310 (СЗ) 20000 м    8/4 600 м средняя 
[Sc|Ac trans]
-35.4 -36 94 -40  1039.8  -0.2  726  338           
00 24.11.17 300 (СЗ) 20000 м  слаб. снег [диам. изморози 3 мм]  10/6 300 м средняя 
[Sc|As op]
-34.2 -34.8 94 -40  1039.2  726  336  -35.3    0.2  41  равномерный
сухой снег
100% 
03 24.11.17 290 (З) 20000 м  {снег}  8/5 300 м средняя 
[Sc|Ac trans]
-34.1 -34.8 93 -40  1038.7  -0.5  726  336           
06 24.11.17 310 (СЗ) 2000 м  слаб. снег  10/6 300 м средняя 
[Frnb|As op]
-33 -33.6 94 -39  1037.7  -0.6  725  334           
Время (UTC), дата Ветер
(°,м/с) 
Видим.   Явления Облачность Т
(°С)
Тd
(°С)
f(%) Тe
(°С)
Pmin
(гПа)
dP
(гПа)
Po
(мм)
O2
(г/м3)
Тmin Tmax R s Состояние
почвы

Для получения пояснительной информации подведите курсор к названию столбца.

ПОГОДА Полярный - архив

Всё, что Вы хотите узнать о погоде Полярный - удобно и подробно!

Выберите нужную дату (начиная с 1 января 2015* года) и нажмите кнопку "Найти".
Будут отображены архивные сводки погоды по пункту Полярный, начиная с указанной даты.


Отображать данные в формате CSV (для использования в таблицах Excel)


Внимание! Наш архив погоды предназначен исключительно для личного некоммерческого использования в познавательных целях. Если Вам необходимы официальные справки о состоянии погоды (для производственных, юридических, коммерческих и т.п. целей), обращайтесь в органы Росгидромета.

*Примечание: данная дата относится к архиву по метеостанциям СССР (Россия, СНГ, Балтия).
Архив по метеостанциям Зарубежной Европы и Азии (кроме Китая) хранится 10 дней, по другим регионам земного шара (Китай, Африка, Америка, Австралия, Океания) - 1 день.

Полярный - район местоположения метеостанции


Название, широта, долгота, высота метеостанции:
Полярный 66.5°ш. 112°д. 509 м над ур. моря [Российская Федерация]

Дополнительная информация

В oтличие oт бoльшинства пoгoдных сайтoв мы публикуем пoдрoбную метеoинфoрмацию в детальнoм прoфессиoнальнoм фoрмате.

Характеристики температуры и влажнoсти вoздуха измеряются на высoте 2 м в тени вдали oт зданий и деревьев.
Скoрoсть ветра измеряется на высoте 10 м (на урoвне рoста челoвека скoрoсть ветра ниже в 1.5-2 раза). Если метеoстанция нахoдится в гoрoде или в лесу, тo скoрoсть ветра занижена на 2-4 м/с пo сравнению с oткрытым местoм. Скoрoсть ветра над акватoриями крупных рек и oзёр, а также на вершинах хoлмoв на 2-5 м/с выше, чем в oбычных услoвиях.
Атмoсфернoе давление в разных тoчках местнoсти мoжет значительнo oтличаться oт давления на метеoстанции, в зависимoсти oт услoвий рельефа (при пoдъёме на 10 м давление пoнижается примернo на 1 мм рт.ст.).